{"data":{"norad_id":52472,"intl_designator":"2022-049X","name":"STARLINK-3881","alt_names":[],"object_type":"PAYLOAD","status":"ACTIVE","operator":null,"country":"US","launch_date":"2022-05-06","launch_site_code":"AFETR","launch_vehicle":null,"mission":null,"orbit_class":"UNKNOWN","rcs_meters":null,"size_class":null,"mass_kg":null,"dimensions":null,"purposes":["comms"],"wikipedia_slug":null,"has_3d_model":false,"image_url":null,"decayed_at":null,"tle_current":{"epoch":"2026-09-19T23:23:28.929696Z","epoch_age_seconds":108671,"freshness":"FRESH","line1":"1 52472U 22049X   26262.97464039  .00000645  00000+0  30934-4 0  9994","line2":"2 52472  53.1587 256.3314 0001262  91.0884 269.0263 15.33542236241724","mean_motion":15.33542236,"eccentricity":0.0001262,"inclination_deg":53.1587,"raan_deg":256.3314,"arg_perigee_deg":91.0884,"mean_anomaly_deg":269.0263,"bstar":3.0934e-5,"rev_number":24172,"period_min":93.90025042649,"perigee_km":464.39024791052,"apogee_km":466.1175197696,"semimajor_km":6843.3908838401,"source":"CELESTRAK","updated_at":"2026-09-20T09:00:40.051831Z"}}}